Location: Go�ngahuizen
(53.0821°N, 5.8849°E)
Time: 06:56:34
(UTC+00:00)

SL-16 R/B - Pass Details

Date: 09 April 2020
Orbit: 985 x 1007 km, 99.5° (Epoch: 24 May)

Event Time Altitude Azimuth Distance (km) Brightness Sun altitude
Exits shadow 23:48:43 24° 102° (ESE) 1,966 4.0 -28.8°
Maximum altitude 23:51:33 35° 57° (ENE) 1,569 3.8 -28.8°
Drops below altitude 10° 23:57:05 10° 355° (N) 2,774 5.8 -28.7°
Sets 23:59:45 0° 347° (NNW) 3,724 6.6 -28.7°
